This demonstration page uses our WeatherBlox Daily Observations layout. Learn more.

38.89511, -77.03637

Hourly Observations for September 30, 2020

Temp ( °F °C ) Dew Point ( °F °C ) Humidity (%) Winds ( mph kmh ) Pressure ( in mb ) Visibility ( mi km ) Precip ( " mm )
12:52 am 00:52 Cloudy with Light Rain 57 13.9 54 12.2 90 90 N 10 17 29.65 1004 10 16.0934 0.04 1.016
1:52 am 01:52 Cloudy with Light Rain 58 14.4 55 12.8 90 90 NE 10 17 29.59 1002 10 16.0934 0.02 0.508
2:15 am 02:15 Cloudy with Light Rain 58 14.4 55 12.8 90 90 Calm 29.64 1004 10 16.0934 0.001 0.001
2:47 am 02:47 Cloudy with Light Rain 57 14 55 13 94 94 W 12 19 29.68 1005 7 11.26538 0.03 0.762
2:52 am 02:52 Cloudy with Light Rain 57 13.9 55 12.8 93 93 WSW 8 13 29.67 1005 7 11.26538 0.03 0.762
3:01 am 03:01 Cloudy with Light Rain 57 13.9 55 12.8 93 93 W 10 17 29.69 1005 8 12.87472 0.01 0.254
3:52 am 03:52 Cloudy with Light Rain 57 13.9 54 12.2 90 90 W 12 19 29.71 1006 8 12.87472 0.04 1.016
3:59 am 03:59 Cloudy with Light Rain 56 13.3 54 12.2 93 93 W 12 19 29.71 1006 7 11.26538 0.01 0.254
4:52 am 04:52 Cloudy 57 13.9 54 12.2 90 90 WSW 8 13 29.73 1007 10 16.0934 0.01 0.254
5:52 am 05:52 Cloudy 57 13.9 54 12.2 90 90 SSW 9 15 29.75 1008 10 16.0934 0 0
6:37 am 06:37 Mostly Cloudy 56 13.3 54 12.2 93 93 SW 5 7 29.77 1008 10 16.0934 0 0
6:52 am 06:52 Mostly Cloudy 56 13.3 53 11.7 90 90 SSW 5 7 29.77 1008 10 16.0934 0 0
7:16 am 07:16 Mostly Sunny 56 13.3 53 11.7 90 90 SSW 6 9 29.79 1009 10 16.0934 0 0
7:52 am 07:52 Mostly Sunny 56 13.3 54 12.2 93 93 SSW 8 13 29.81 1010 10 16.0934 0 0
8:52 am 08:52 Mostly Sunny 59 15 54 12.2 83 83 SW 6 9 29.83 1010 10 16.0934 0 0
9:52 am 09:52 Mostly Sunny 63 17.2 54 12.2 73 73 WSW 7 11 29.86 1011 10 16.0934 0 0
10:52 am 10:52 Mostly Sunny 66 18.9 49 9.4 54 54 W 15 24 29.85 1011 10 16.0934 0 0
11:52 am 11:52 Mostly Sunny 68 20 49 9.4 51 51 W 9 15 29.86 1011 10 16.0934 0 0
12:52 pm 12:52 Partly Cloudy 69 20.6 48 8.9 47 47 SW 14 22 29.86 1011 10 16.0934 0 0
1:52 pm 13:52 Partly Cloudy 70 21.1 49 9.4 47 47 SW 15 24 29.86 1011 10 16.0934 0 0
2:52 pm 14:52 Partly Cloudy 71 21.7 49 9.4 46 46 WSW 17 28 29.85 1011 10 16.0934 0 0
3:52 pm 15:52 Mostly Sunny 71 21.7 49 9.4 46 46 SSW 9 15 29.83 1010 10 16.0934 0 0
4:52 pm 16:52 Mostly Sunny 70 21.1 51 10.6 51 51 SSW 12 19 29.84 1010 10 16.0934 0 0
5:52 pm 17:52 Mostly Sunny 69 20.6 50 10 51 51 SSW 16 26 29.84 1011 10 16.0934 0 0
6:52 pm 18:52 Mostly Sunny 66 18.9 52 11.1 61 61 S 10 17 29.86 1011 10 16.0934 0 0
7:52 pm 19:52 Mostly Clear 65 18.3 52 11.1 63 63 S 10 17 29.87 1012 10 16.0934 0 0
8:52 pm 20:52 Mostly Clear 63 17.2 54 12.2 73 73 S 12 19 29.88 1012 10 16.0934 0 0
9:52 pm 21:52 Mostly Clear 63 17.2 53 11.7 70 70 S 14 22 29.89 1012 10 16.0934 0 0
10:52 pm 22:52 Clear 62 16.7 53 11.7 73 73 S 10 17 29.9 1013 10 16.0934 0 0
11:52 pm 23:52 Clear 62 16.7 55 12.8 78 78 S 12 19 29.91 1013 10 16.0934 0 0

Powered by AerisWeather